Location: ShareBrained
(45.5589°N, 122.6491°W)
Time: 14:19:50
(UTC-08:00)

NOAA 19 - Visible Passes

Search period start: 19 January 2019 00:00
Search period end: 29 January 2019 00:00
Orbit: 840 x 862 km, 99.2° (Epoch: 19 January)

Date Brightness Start Highest point End Pass type
(mag) Time Alt. Az. Time Alt. Az. Time Alt. Az.
19 Jan 6.3 04:34:47 10° NNE 04:39:57 41° E 04:45:05 10° SSE visible
19 Jan 5.9 06:15:42 10° N 06:20:29 32° WNW 06:25:15 10° SW visible
19 Jan 8.3 17:48:01 10° WSW 17:50:17 12° W 17:52:33 10° WNW visible
20 Jan 6.7 04:23:20 10° NNE 04:28:15 33° E 04:33:08 10° SSE visible
20 Jan 5.6 06:03:54 10° N 06:08:56 39° WNW 06:13:59 10° SW visible
20 Jan 8.1 17:35:11 10° SW 17:38:29 16° W 17:41:47 10° NW visible
21 Jan 7.1 04:11:57 10° NE 04:16:30 26° E 04:21:03 10° SSE visible
21 Jan 5.4 05:52:09 10° N 05:57:23 48° WNW 06:02:38 10° SW visible
22 Jan 7.4 04:00:40 10° NE 04:04:46 21° E 04:08:50 10° SE visible
22 Jan 5.2 05:40:25 10° N 05:45:49 59° WNW 05:51:12 10° SSW visible
23 Jan 7.7 03:49:32 10° NE 03:52:59 17° E 03:56:26 10° SE visible
23 Jan 5.1 05:28:44 10° NNE 05:34:13 74° WNW 05:39:41 10° SSW visible
24 Jan 8.0 03:38:42 10° ENE 03:41:12 13° E 03:43:40 10° ESE visible
24 Jan 5.1 05:17:05 10° NNE 05:22:36 89° ESE 05:28:06 10° SSW visible
24 Jan 6.6 06:59:20 10° NNW 07:02:31 16° NW 07:05:42 10° W visible
25 Jan 5.3 05:05:28 10° NNE 05:10:58 73° ESE 05:16:27 10° S visible
25 Jan 6.4 06:47:17 10° NNW 06:51:03 19° WNW 06:54:50 10° WSW visible
26 Jan 5.7 04:53:53 10° NNE 04:59:18 58° ESE 05:04:43 10° S visible
26 Jan 6.2 06:35:19 10° N 06:39:35 24° WNW 06:43:49 10° WSW visible
27 Jan 6.1 04:42:20 10° NNE 04:47:38 46° E 04:52:54 10° S visible
27 Jan 6.0 06:23:27 10° N 06:28:04 29° WNW 06:32:42 10° WSW visible
27 Jan 8.6 17:56:48 10° W 17:58:02 11° W 17:59:16 10° WNW visible
28 Jan 6.5 04:30:52 10° NNE 04:35:56 37° E 04:41:00 10° SSE visible
28 Jan 5.8 06:11:37 10° N 06:16:32 35° WNW 06:21:28 10° SW visible
28 Jan 8.2 17:43:26 10° WSW 17:46:13 14° W 17:49:00 10° WNW visible
